NIMBUS 2 DEB, 28610

Orbit data source: Space-Track

NIMBUS 2 DEB, 28610 is space debris in SSO originally from a launch on Sun, 15 May 1966 UTC launched from the Air Force Western Test Range (AFWTR). Debris objects in space refer to the collection of defunct objects orbiting the Earth. Examples of debris include non-operational satellites, rocket bodies, and fragments generated from explosions, collisions, or faulty payload assembly.

Loading next visibility...
Identifier
28610, 1966-040Z
Orbit
SSO
Country
Flag of USUS
Related business
Manufacturer
Unknown
Mission
Spacecraft
Bus & Motor
Unknown
Mass
Unknown
Launch date (UTC)
1966-05-15 (60 years ago)
Launch vehicle
Unknown
Launch site
Air Force Western Test Range (AFWTR)
Object type
Payload
Rocket body
Debris
Shape & HBR
Unknown shape, 0.1 m
Radar Cross Section
Small (<0.1 m²)

Expand to show TLE details & history
Last TLE update: 1 week ago

TLE from 1 week ago
0 NIMBUS 2 DEB
1 28610U 66040Z   26122.99767323  .00002063  00000-0  27025-2 0  9991
2 28610 100.4991 213.1381 0077540 242.5535 298.0194 13.61687266620626
Epoch: 2026-05-02T23:56Z
TLE epoch observation values (Epoch: 2026-05-02T23:56:38.967Z)
Latitude
0.09991°
Longitude
173.08661°
Altitude
1,005.688 km
Speed
7.362 km/s
True Right ascension
02h 12m 37s
True Declination
0° 05' 58"
Sunlit
Object was in daylight at epoch
Visualization orbit readout
Latitude
Unknown
Longitude
Unknown
Altitude
Unknown
Speed
Unknown
Apparent Right ascension
Unknown
Apparent Declination
Unknown
Sunlit
N/A
Visualization observer readout
Local Sidereal Time
06:57:52
Azimuth
Unknown
Elevation
Unknown
Doppler factor
Unknown
Orbital elements
Apogee altitude
1,084.314 km
Perigee altitude
969.476 km
Semi-major axis
7,405.032 km
Eccentricity
0.00775
Inclination
100.4991°
RAAN
213.1381°
Arg. of periapsis
242.5535°
True anomaly
297.23144°
Mean anomaly
298.0194°
Eccentric anomaly
297.62578°
Mean motion
3.40606 °/min
Orbital period
105.69 mins
BSTAR
0.0027025
Loading maneuver chart data...
Computing Atmospheric mass density...
Loading historical data...
Loading historical data...
Loading historical data...
Loading historical data...
Loading historical data...
Loading historical data...
Loading historical data...

Documentation

Showing up to 5 results
|